Ludington, MI

12:13 PM EDT on October 14, 2019 (GMT -0400)
Mason County

Weather History for KLDM - August, 2019

Change the Weather History Date:

Sunday, August 11, 2019

  Actual Average Record
Temperature  
Mean Temperature 66 °F -  
Max Temperature 77 °F 76 °F 90 °F (1988)
Min Temperature 54 °F 54 °F 43 °F (1967)
Growing Degree Days 16 (Base 50)    
Moisture  
Dew Point 60 °F    
Average Humidity 81    
Maximum Humidity 98    
Minimum Humidity 61    
Precipitation  
Precipitation 0.00 in - - ()
Sea Level Pressure  
Sea Level Pressure 30.00 in    
Wind  
Wind Speed 1 mph (SSW)    
Max Wind Speed 10 mph    
Max Gust Speed -    
Visibility 10 miles    
Events Rain    
Averages and records for this station are not official NWS values.
T = Trace of Precipitation, MM = Missing Value Source: NWS Daily Summary

Daily Weather History Graph

Daily Weather History Graph

Search for Another Location

Airport or City:

Astronomy

Aug. 11, 2019 Rise Set
Actual Time 6:44 AM EDT 8:56 PM EDT
Civil Twilight 6:13 AM EDT 9:27 PM EDT
Nautical Twilight 5:33 AM EDT 10:06 PM EDT
Astronomical Twilight 4:50 AM EDT 10:49 PM EDT
Moon 6:39 PM EDT (8/11) 3:00 AM EDT (8/11)
Length of Visible Light 15h 14m
Length of Day
14h 11m
Waxing Gibbous, 87% of the Moon is Illuminated
Aug 11
Waxing Gibbous
Aug 15
Full
Aug 23
Last Quarter
Aug 30
New
Sep 5
First Quarter

Hourly Weather History & Observations

Time (EDT) Temp. Dew Point Humidity Pressure Visibility Wind Dir Wind Speed Gust Speed Precip Events Conditions
12:17 AM 57.4 °F 56.7 °F 97% 30.00 in 10.0 mi Calm Calm - N/A   Clear
12:35 AM 57.4 °F 56.5 °F 97% 30.01 in 7.0 mi Calm Calm - N/A   Clear
12:36 AM 57.2 °F 56.5 °F 97% 30.01 in 7.0 mi Calm Calm - N/A   Clear
12:55 AM 55.4 °F 54.7 °F 97% 30.02 in 10.0 mi Calm Calm - N/A   Clear
12:56 AM 55.6 °F 54.7 °F 97% 30.02 in 10.0 mi Calm Calm - N/A   Clear
1:15 AM 56.5 °F 55.8 °F 97% 30.02 in 10.0 mi Calm Calm - N/A   Clear
1:38 AM 56.5 °F 55.8 °F 97% 30.02 in 5.0 mi Calm Calm - N/A   Clear
1:56 AM 55.4 °F 54.7 °F 97% 30.02 in 10.0 mi Calm Calm - N/A   Clear
2:15 AM 54.1 °F 53.4 °F 97% 30.02 in 7.0 mi Calm Calm - N/A   Clear
2:16 AM 54.3 °F 53.6 °F 97% 30.02 in 7.0 mi Calm Calm - N/A   Clear
2:35 AM 55.6 °F 55.0 °F 98% 30.02 in 10.0 mi Calm Calm - N/A   Clear
2:59 AM 55.4 °F 54.7 °F 97% 30.02 in 10.0 mi Calm Calm - N/A   Clear
3:17 AM 56.8 °F 56.3 °F 98% 30.02 in 10.0 mi Calm Calm - N/A   Clear
3:35 AM 55.6 °F 54.7 °F 97% 30.01 in 10.0 mi Calm Calm - N/A   Clear
3:55 AM 56.3 °F 55.4 °F 97% 30.02 in 10.0 mi Calm Calm - N/A   Clear
3:56 AM 56.3 °F 55.6 °F 97% 30.02 in 10.0 mi Calm Calm - N/A   Clear
4:15 AM 57.2 °F 56.3 °F 97% 30.02 in 10.0 mi Calm Calm - N/A   Scattered Clouds
4:20 AM 57.4 °F 56.5 °F 97% 30.02 in 10.0 mi Calm Calm - N/A   Clear
4:37 AM 57.2 °F 56.3 °F 97% 30.02 in 10.0 mi Calm Calm - N/A   Scattered Clouds
4:56 AM 57.4 °F 56.5 °F 97% 30.02 in 10.0 mi Calm Calm - N/A   Mostly Cloudy
5:15 AM 58.8 °F 57.4 °F 95% 30.01 in 10.0 mi Calm Calm - N/A   Overcast
5:16 AM 58.8 °F 57.4 °F 95% 30.01 in 10.0 mi Calm Calm - N/A   Overcast
5:35 AM 59.4 °F 57.6 °F 94% 30.02 in 10.0 mi Calm Calm - N/A   Overcast
5:36 AM 59.4 °F 57.6 °F 94% 30.02 in 10.0 mi Calm Calm - N/A   Overcast
5:59 AM 59.9 °F 57.6 °F 92% 30.03 in 10.0 mi Calm Calm - N/A   Overcast
6:17 AM 59.9 °F 57.4 °F 91% 30.02 in 10.0 mi Calm Calm - N/A   Overcast
6:35 AM 60.4 °F 57.6 °F 90% 30.03 in 10.0 mi Calm Calm - N/A   Overcast
6:55 AM 61.0 °F 57.2 °F 87% 30.03 in 10.0 mi Calm Calm - N/A   Overcast
6:56 AM 61.0 °F 57.2 °F 87% 30.03 in 10.0 mi Calm Calm - N/A   Overcast
7:15 AM 61.2 °F 57.2 °F 87% 30.03 in 10.0 mi East 3.5 mph - N/A   Overcast
7:20 AM 61.0 °F 57.7 °F 89% 30.03 in 10.0 mi East 5.8 mph - N/A   Overcast
7:38 AM 61.2 °F 57.4 °F 87% 30.03 in 10.0 mi Calm Calm - N/A   Overcast
7:56 AM 61.9 °F 59.0 °F 90% 30.03 in 10.0 mi Calm Calm - N/A   Overcast
8:15 AM 62.6 °F 57.6 °F 84% 30.03 in 10.0 mi Calm Calm - N/A   Overcast
8:35 AM 63.5 °F 58.3 °F 83% 30.04 in 10.0 mi Calm Calm - N/A   Overcast
8:59 AM 64.8 °F 58.8 °F 81% 30.04 in 10.0 mi Calm Calm - N/A   Overcast
9:17 AM 65.1 °F 58.6 °F 79% 30.04 in 10.0 mi Calm Calm - N/A   Overcast
9:35 AM 66.2 °F 59.4 °F 79% 30.04 in 10.0 mi Calm Calm - N/A   Overcast
9:55 AM 66.7 °F 60.3 °F 80% 30.04 in 10.0 mi East 3.5 mph - N/A   Overcast
10:15 AM 67.3 °F 60.8 °F 80% 30.03 in 10.0 mi ESE 3.5 mph - N/A   Overcast
10:38 AM 68.2 °F 61.0 °F 78% 30.04 in 10.0 mi Calm Calm - N/A   Overcast
10:56 AM 69.6 °F 61.2 °F 74% 30.03 in 10.0 mi ESE 3.5 mph - N/A   Overcast
11:15 AM 71.1 °F 62.1 °F 73% 30.04 in 10.0 mi South 3.5 mph - N/A   Overcast
11:35 AM 72.0 °F 61.0 °F 68% 30.04 in 10.0 mi South 4.6 mph - N/A   Overcast
11:59 AM 72.0 °F 60.6 °F 67% 30.03 in 10.0 mi SSW 3.5 mph - N/A   Overcast
12:16 PM 72.1 °F 61.3 °F 69% 30.03 in 10.0 mi SE 3.5 mph - N/A   Overcast
12:35 PM 72.0 °F 61.3 °F 69% 30.03 in 10.0 mi Calm Calm - N/A Rain Rain
12:36 PM 72.0 °F 61.5 °F 70% 30.03 in 10.0 mi Calm Calm - N/A Rain Rain
12:55 PM 71.6 °F 64.6 °F 78% 30.02 in 10.0 mi ENE 4.6 mph - N/A   Overcast
1:15 PM 72.5 °F 63.3 °F 73% 30.02 in 10.0 mi ENE 3.5 mph - N/A   Overcast
1:38 PM 72.9 °F 63.1 °F 71% 30.02 in 10.0 mi ENE 3.5 mph - N/A   Overcast
1:56 PM 74.5 °F 63.0 °F 67% 30.02 in 10.0 mi ESE 3.5 mph - N/A   Overcast
2:15 PM 74.5 °F 62.8 °F 67% 30.02 in 10.0 mi Calm Calm - N/A   Overcast
2:16 PM 74.5 °F 62.6 °F 66% 30.02 in 10.0 mi Calm Calm - N/A   Overcast
2:35 PM 74.8 °F 63.1 °F 67% 30.02 in 10.0 mi WSW 6.9 mph - N/A   Overcast
2:59 PM 75.4 °F 61.2 °F 61% 30.01 in 10.0 mi WSW 6.9 mph - N/A   Overcast
3:17 PM 75.9 °F 61.9 °F 62% 30.00 in 10.0 mi SW 6.9 mph - N/A   Mostly Cloudy
3:35 PM 77.0 °F 62.4 °F 61% 29.99 in 10.0 mi SSW 4.6 mph - N/A   Mostly Cloudy
3:36 PM 77.0 °F 62.6 °F 61% 29.99 in 10.0 mi SSW 6.9 mph - N/A   Mostly Cloudy
3:55 PM 76.5 °F 63.5 °F 64% 29.99 in 10.0 mi SW 9.2 mph - N/A   Overcast
4:15 PM 77.2 °F 65.1 °F 66% 29.98 in 10.0 mi SW 8.1 mph - N/A   Mostly Cloudy
4:38 PM 75.4 °F 64.9 °F 70% 29.97 in 10.0 mi SW 6.9 mph - N/A   Mostly Cloudy
4:56 PM 75.2 °F 66.6 °F 74% 29.97 in 10.0 mi SW 5.8 mph - N/A   Mostly Cloudy
5:15 PM 76.1 °F 66.4 °F 72% 29.97 in 10.0 mi Calm Calm - N/A   Scattered Clouds
5:35 PM 77.5 °F 66.2 °F 68% 29.96 in 10.0 mi SSW 3.5 mph - N/A   Mostly Cloudy
5:59 PM 76.8 °F 65.5 °F 68% 29.95 in 10.0 mi SW 6.9 mph - N/A   Mostly Cloudy
6:17 PM 76.3 °F 61.9 °F 61% 29.95 in 10.0 mi SW 8.1 mph - N/A   Mostly Cloudy
6:35 PM 74.8 °F 63.7 °F 68% 29.95 in 10.0 mi WSW 9.2 mph - N/A   Overcast
6:55 PM 74.3 °F 62.8 °F 67% 29.95 in 10.0 mi SW 6.9 mph - N/A   Overcast
7:15 PM 73.9 °F 62.6 °F 68% 29.95 in 10.0 mi SW 8.1 mph - N/A   Overcast
7:20 PM 73.8 °F 62.1 °F 67% 29.95 in 10.0 mi SW 10.4 mph - N/A   Overcast
7:38 PM 73.4 °F 61.0 °F 65% 29.95 in 10.0 mi SW 6.9 mph - N/A   Overcast
7:56 PM 72.9 °F 61.2 °F 67% 29.95 in 10.0 mi SW 8.1 mph - N/A   Overcast
8:16 PM 72.7 °F 60.8 °F 66% 29.95 in 10.0 mi SW 4.6 mph - N/A   Overcast
8:35 PM 72.3 °F 62.2 °F 70% 29.95 in 10.0 mi SW 4.6 mph - N/A   Overcast
8:55 PM 72.1 °F 61.9 °F 70% 29.95 in 10.0 mi SSW 3.5 mph - N/A   Overcast
9:18 PM 72.1 °F 61.9 °F 70% 29.94 in 10.0 mi Calm Calm - N/A   Overcast
9:36 PM 71.1 °F 63.0 °F 75% 29.94 in 10.0 mi Calm Calm - N/A   Overcast
9:55 PM 71.4 °F 63.0 °F 75% 29.94 in 10.0 mi Calm Calm - N/A   Overcast
10:15 PM 70.2 °F 63.3 °F 79% 29.94 in 10.0 mi Calm Calm - N/A   Overcast
10:16 PM 70.2 °F 63.3 °F 79% 29.94 in 10.0 mi Calm Calm - N/A   Overcast
10:38 PM 69.4 °F 64.2 °F 83% 29.94 in 10.0 mi Calm Calm - N/A   Overcast
10:57 PM 69.4 °F 64.0 °F 83% 29.94 in 10.0 mi Calm Calm - N/A   Overcast
11:15 PM 69.8 °F 63.1 °F 79% 29.94 in 10.0 mi Calm Calm - N/A   Overcast
11:35 PM 69.1 °F 63.0 °F 81% 29.94 in 10.0 mi Calm Calm - N/A   Overcast
11:36 PM 68.7 °F 63.1 °F 82% 29.94 in 10.0 mi Calm Calm - N/A   Overcast
11:55 PM 66.9 °F 63.9 °F 90% 29.94 in 10.0 mi Calm Calm - N/A   Overcast